,,,PA_Meas_PMT16A,,PR_Meas_QMR101_102,,RH_Meas_QMH101,,SR_Meas_QMS101,,TA_Meas_QMH101,,GenWind,,GenWind,
date,time,status,PA,status,PR,status,RH,status,SR,status,TA,status,DirAvg,status,SpdAvg,
2013-02-28, 00:00:04,VALID,1008.53,VALID,0,VALID,103.84,VALID,0.112112,VALID,25.5047,VALID,160,VALID,0.0683594,
2013-02-28, 00:01:04,VALID,1008.57,VALID,0,VALID,103.939,VALID,0.112112,VALID,25.4852,VALID,160,VALID,0,
2013-02-28, 00:02:04,VALID,1008.59,VALID,0,VALID,104,VALID,0.112112,VALID,25.5047,VALID,160,VALID,0,
2013-02-28, 00:03:04,VALID,1008.56,VALID,0,VALID,104,VALID,0,VALID,25.5066,VALID,160,VALID,0.00195313,
2013-02-28, 00:04:04,VALID,1008.58,VALID,0,VALID,104,VALID,0,VALID,25.5066,VALID,160,VALID,0,
2013-02-28, 00:05:04,VALID,1008.59,VALID,0,VALID,104,VALID,0,VALID,25.5066,VALID,160,VALID,0,
2013-02-28, 00:06:04,VALID,1008.63,VALID,0,VALID,104,VALID,0,VALID,25.5066,VALID,160,VALID,0.0519531,
2013-02-28, 00:07:04,VALID,1008.68,VALID,0,VALID,104,VALID,0,VALID,25.4871,VALID,160,VALID,0,
2013-02-28, 00:08:04,VALID,1008.7,VALID,0,VALID,104,VALID,0,VALID,25.5066,VALID,160,VALID,0,
2013-02-28, 00:09:04,VALID,1008.7,VALID,0,VALID,104,VALID,0,VALID,25.5066,VALID,160,VALID,0,
2013-02-28, 00:10:04,VALID,1008.74,VALID,0,VALID,104,VALID,0,VALID,25.4677,VALID,160,VALID,0,
2013-02-28, 00:11:04,VALID,1008.73,VALID,0,VALID,104,VALID,0,VALID,25.4677,VALID,160,VALID,0,
2013-02-28, 00:12:04,VALID,1008.75,VALID,0,VALID,104,VALID,0,VALID,25.4677,VALID,160,VALID,0,
2013-02-28, 00:13:04,VALID,1008.75,VALID,0,VALID,104,VALID,0,VALID,25.4677,VALID,160,VALID,0,
2013-02-28, 00:14:04,VALID,1008.73,VALID,0,VALID,104,VALID,0,VALID,25.4482,VALID,160,VALID,0,
2013-02-28, 00:15:04,VALID,1008.72,VALID,0,VALID,104,VALID,0,VALID,25.4482,VALID,160,VALID,0,
2013-02-28, 00:16:04,VALID,1008.68,VALID,0,VALID,104,VALID,0,VALID,25.4482,VALID,160,VALID,0,
2013-02-28, 00:17:04,VALID,1008.7,VALID,0,VALID,104,VALID,0,VALID,25.4287,VALID,160,VALID,0,
2013-02-28, 00:18:04,VALID,1008.7,VALID,0,VALID,104,VALID,0,VALID,25.4287,VALID,160,VALID,0,
2013-02-28, 00:19:04,VALID,1008.7,VALID,0,VALID,104,VALID,0,VALID,25.4287,VALID,160,VALID,0,
2013-02-28, 00:20:04,VALID,1008.71,VALID,0,VALID,104,VALID,0,VALID,25.4287,VALID,160,VALID,0,
2013-02-28, 00:21:04,VALID,1008.7,VALID,0,VALID,104,VALID,0,VALID,25.4287,VALID,160,VALID,0,
2013-02-28, 00:22:04,VALID,1008.69,VALID,0,VALID,104,VALID,0,VALID,25.4287,VALID,160,VALID,0,
2013-02-28, 00:23:04,VALID,1008.69,VALID,0,VALID,104,VALID,0,VALID,25.4501,VALID,160,VALID,0,
2013-02-28, 00:24:04,VALID,1008.63,VALID,0,VALID,104,VALID,0,VALID,25.4287,VALID,160,VALID,0,
2013-02-28, 00:25:04,VALID,1008.63,VALID,0,VALID,104,VALID,0,VALID,25.4287,VALID,160,VALID,0.237891,
2013-02-28, 00:26:04,VALID,1008.61,VALID,0,VALID,104,VALID,0,VALID,25.3877,VALID,160,VALID,0.257422,
2013-02-28, 00:27:04,VALID,1008.61,VALID,0,VALID,104,VALID,0,VALID,25.4092,VALID,160,VALID,0.263672,
2013-02-28, 00:28:04,VALID,1008.6,VALID,0,VALID,104,VALID,0,VALID,25.3897,VALID,160,VALID,0.291406,
2013-02-28, 00:29:04,VALID,1008.61,VALID,0,VALID,104,VALID,0,VALID,25.3897,VALID,160,VALID,0.239453,
2013-02-28, 00:30:04,VALID,1008.59,VALID,0,VALID,104,VALID,0,VALID,25.3702,VALID,160,VALID,0.266016,
2013-02-28, 00:31:04,VALID,1008.54,VALID,0,VALID,104,VALID,0,VALID,25.3683,VALID,160,VALID,0.391406,
2013-02-28, 00:32:04,VALID,1008.48,VALID,0,VALID,104,VALID,0,VALID,25.3702,VALID,160,VALID,0.427734,
2013-02-28, 00:33:04,VALID,1008.46,VALID,0,VALID,104,VALID,0,VALID,25.3702,VALID,160,VALID,0.430078,
2013-02-28, 00:34:04,VALID,1008.44,VALID,0,VALID,104,VALID,0,VALID,25.3507,VALID,160,VALID,0.304297,
2013-02-28, 00:35:04,VALID,1008.42,VALID,0,VALID,104,VALID,0,VALID,25.3507,VALID,98,VALID,0.378125,
2013-02-28, 00:36:04,VALID,1008.47,VALID,0,VALID,104,VALID,0,VALID,25.3507,VALID,98,VALID,0.202344,
2013-02-28, 00:37:04,VALID,1008.43,VALID,0,VALID,104,VALID,0,VALID,25.3098,VALID,97,VALID,0.170703,
2013-02-28, 00:38:04,VALID,1008.45,VALID,0,VALID,104,VALID,0,VALID,25.3507,VALID,97,VALID,0.161719,
2013-02-28, 00:39:04,VALID,1008.42,VALID,0,VALID,104,VALID,0,VALID,25.3507,VALID,98,VALID,0.0597656,
2013-02-28, 00:40:04,VALID,1008.44,VALID,0,VALID,104,VALID,0,VALID,25.3507,VALID,97,VALID,0.122266,
2013-02-28, 00:41:04,VALID,1008.41,VALID,0,VALID,104,VALID,0,VALID,25.3312,VALID,98,VALID,0.0238281,
2013-02-28, 00:42:04,VALID,1008.39,VALID,0,VALID,104,VALID,0,VALID,25.3507,VALID,98,VALID,0,
2013-02-28, 00:43:04,VALID,1008.36,VALID,0,VALID,104,VALID,0,VALID,25.3312,VALID,97,VALID,0.224219,
2013-02-28, 00:44:04,VALID,1008.35,VALID,0,VALID,104,VALID,0,VALID,25.3312,VALID,98,VALID,0.309766,
2013-02-28, 00:45:04,VALID,1008.35,VALID,0,VALID,104,VALID,0,VALID,25.2903,VALID,98,VALID,0.261719,
2013-02-28, 00:46:04,VALID,1008.34,VALID,0,VALID,104,VALID,0,VALID,25.3117,VALID,98,VALID,0.202344,
2013-02-28, 00:47:04,VALID,1008.37,VALID,0,VALID,104,VALID,0,VALID,25.2922,VALID,97,VALID,0.114453,
2013-02-28, 00:48:04,VALID,1008.39,VALID,0,VALID,104,VALID,0,VALID,25.2727,VALID,98,VALID,0.0585938,
2013-02-28, 00:49:04,VALID,1008.39,VALID,0,VALID,104,VALID,0,VALID,25.2727,VALID,98,VALID,0.128516,
2013-02-28, 00:50:04,VALID,1008.37,VALID,0,VALID,104,VALID,0,VALID,25.2727,VALID,98,VALID,0.162109,
2013-02-28, 00:51:04,VALID,1008.38,VALID,0,VALID,104,VALID,0,VALID,25.2532,VALID,97,VALID,0.150781,
2013-02-28, 00:52:04,VALID,1008.39,VALID,0,VALID,104,VALID,0,VALID,25.2532,VALID,98,VALID,0.139453,
2013-02-28, 00:53:04,VALID,1008.39,VALID,0,VALID,104,VALID,0,VALID,25.2532,VALID,99,VALID,0.219141,
2013-02-28, 00:54:04,VALID,1008.4,VALID,0,VALID,104,VALID,0,VALID,25.2922,VALID,97,VALID,0.191406,
2013-02-28, 00:55:04,VALID,1008.39,VALID,0,VALID,104,VALID,0,VALID,25.2922,VALID,98,VALID,0.170312,
2013-02-28, 00:56:04,VALID,1008.39,VALID,0,VALID,104,VALID,0,VALID,25.2922,VALID,97,VALID,0.220703,
2013-02-28, 00:57:04,VALID,1008.4,VALID,0,VALID,104,VALID,0,VALID,25.3117,VALID,98,VALID,0.246875,
2013-02-28, 00:58:05,VALID,1008.39,VALID,0,VALID,104,VALID,0,VALID,25.3117,VALID,97,VALID,0.215625,
2013-02-28, 00:59:05,VALID,1008.41,VALID,0,VALID,104,VALID,0,VALID,25.2922,VALID,98,VALID,0.244531,
2013-02-28, 01:00:05,VALID,1008.44,VALID,0,VALID,104,VALID,0,VALID,25.2922,VALID,97,VALID,0.235156,
2013-02-28, 01:01:05,VALID,1008.46,VALID,0,VALID,104,VALID,0,VALID,25.2922,VALID,97,VALID,0.283984,
2013-02-28, 01:02:05,VALID,1008.46,VALID,0,VALID,104,VALID,0,VALID,25.2922,VALID,98,VALID,0.233203,
2013-02-28, 01:03:05,VALID,1008.49,VALID,0,VALID,104,VALID,0,VALID,25.2922,VALID,98,VALID,0.141797,
2013-02-28, 01:04:05,VALID,1008.49,VALID,0,VALID,104,VALID,0,VALID,25.2922,VALID,98,VALID,0.0257812,
2013-02-28, 01:05:05,VALID,1008.49,VALID,0,VALID,104,VALID,0,VALID,25.2922,VALID,97,VALID,0,
2013-02-28, 01:06:05,VALID,1008.44,VALID,0,VALID,104,VALID,0,VALID,25.2922,VALID,97,VALID,0.106641,
2013-02-28, 01:07:05,VALID,1008.46,VALID,0,VALID,104,VALID,0,VALID,25.3117,VALID,97,VALID,0.146484,
2013-02-28, 01:08:05,VALID,1008.47,VALID,0,VALID,104,VALID,0,VALID,25.3136,VALID,97,VALID,0.178906,
2013-02-28, 01:09:05,VALID,1008.47,VALID,0,VALID,104,VALID,0,VALID,25.2708,VALID,97,VALID,0.0984375,
2013-02-28, 01:10:05,VALID,1008.42,VALID,0,VALID,104,VALID,0,VALID,25.2727,VALID,97,VALID,0,
2013-02-28, 01:11:05,VALID,1008.4,VALID,0,VALID,104,VALID,0,VALID,25.2727,VALID,98,VALID,0,
2013-02-28, 01:12:05,VALID,1008.37,VALID,0,VALID,104,VALID,0,VALID,25.2532,VALID,97,VALID,0,
2013-02-28, 01:13:05,VALID,1008.36,VALID,0,VALID,104,VALID,0,VALID,25.2337,VALID,98,VALID,0,
2013-02-28, 01:14:05,VALID,1008.37,VALID,0,VALID,104,VALID,0,VALID,25.2337,VALID,97,VALID,0,
2013-02-28, 01:15:05,VALID,1008.35,VALID,0,VALID,104,VALID,0,VALID,25.1928,VALID,98,VALID,0,
2013-02-28, 01:16:05,VALID,1008.32,VALID,0,VALID,104,VALID,0,VALID,25.2142,VALID,98,VALID,0.00195313,
2013-02-28, 01:17:05,VALID,1008.33,VALID,0,VALID,104,VALID,0,VALID,25.2142,VALID,97,VALID,0.223828,
2013-02-28, 01:18:05,VALID,1008.28,VALID,0,VALID,104,VALID,0,VALID,25.1947,VALID,98,VALID,0.243359,
2013-02-28, 01:19:05,VALID,1008.25,VALID,0,VALID,104,VALID,0,VALID,25.1752,VALID,98,VALID,0.341016,
2013-02-28, 01:20:05,VALID,1008.19,VALID,0,VALID,104,VALID,0,VALID,25.1752,VALID,98,VALID,0.4,
2013-02-28, 01:21:05,VALID,1008.16,VALID,0,VALID,104,VALID,0,VALID,25.1557,VALID,98,VALID,0.33125,
2013-02-28, 01:22:05,VALID,1008.2,VALID,0,VALID,104,VALID,0,VALID,25.1576,VALID,98,VALID,0.292969,
2013-02-28, 01:23:05,VALID,1008.19,VALID,0,VALID,104,VALID,0,VALID,25.1362,VALID,98,VALID,0.136328,
2013-02-28, 01:24:05,VALID,1008.19,VALID,0,VALID,104,VALID,0,VALID,25.1167,VALID,98,VALID,0,
2013-02-28, 01:25:05,VALID,1008.17,VALID,0,VALID,104,VALID,0,VALID,25.1362,VALID,98,VALID,0,
2013-02-28, 01:26:05,VALID,1008.16,VALID,0,VALID,104,VALID,0,VALID,25.1167,VALID,98,VALID,0,
2013-02-28, 01:27:05,VALID,1008.15,VALID,0,VALID,104,VALID,0,VALID,25.1362,VALID,98,VALID,0,
2013-02-28, 01:28:05,VALID,1008.11,VALID,0,VALID,104,VALID,0,VALID,25.1362,VALID,97,VALID,0,
2013-02-28, 01:29:05,VALID,1008.12,VALID,0,VALID,104,VALID,0,VALID,25.1362,VALID,98,VALID,0,
2013-02-28, 01:30:05,VALID,1008.12,VALID,0,VALID,104,VALID,0,VALID,25.1167,VALID,98,VALID,0,
2013-02-28, 01:31:05,VALID,1008.13,VALID,0,VALID,104,VALID,0,VALID,25.1167,VALID,98,VALID,0,
2013-02-28, 01:32:05,VALID,1008.13,VALID,0,VALID,104,VALID,0,VALID,25.1167,VALID,98,VALID,0,
2013-02-28, 01:33:05,VALID,1008.15,VALID,0,VALID,104,VALID,0,VALID,25.1167,VALID,98,VALID,0,
2013-02-28, 01:34:05,VALID,1008.14,VALID,0,VALID,104,VALID,0,VALID,25.1148,VALID,98,VALID,0,
2013-02-28, 01:35:05,VALID,1008.13,VALID,0,VALID,104,VALID,0,VALID,25.1557,VALID,98,VALID,0,
2013-02-28, 01:36:05,VALID,1008.11,VALID,0,VALID,104,VALID,0,VALID,25.1557,VALID,98,VALID,0.192188,
2013-02-28, 01:37:05,VALID,1008.11,VALID,0,VALID,104,VALID,0,VALID,25.1557,VALID,98,VALID,0.319922,
2013-02-28, 01:38:05,VALID,1008.09,VALID,0,VALID,104,VALID,0,VALID,25.1557,VALID,98,VALID,0.321875,
2013-02-28, 01:39:05,VALID,1008.07,VALID,0,VALID,104,VALID,0,VALID,25.1557,VALID,98,VALID,0.305078,
2013-02-28, 01:40:05,VALID,1008.05,VALID,0,VALID,104,VALID,0,VALID,25.1752,VALID,98,VALID,0.358203,
2013-02-28, 01:41:05,VALID,1008.05,VALID,0,VALID,104,VALID,0,VALID,25.1752,VALID,98,VALID,0.235938,
2013-02-28, 01:42:05,VALID,1008.07,VALID,0,VALID,104,VALID,0,VALID,25.1752,VALID,98,VALID,0.103516,
2013-02-28, 01:43:05,VALID,1008.07,VALID,0,VALID,104,VALID,0,VALID,25.1752,VALID,98,VALID,0.183984,
2013-02-28, 01:44:05,VALID,1008.06,VALID,0,VALID,104,VALID,0,VALID,25.1557,VALID,98,VALID,0.142969,
2013-02-28, 01:45:05,VALID,1008.05,VALID,0,VALID,104,VALID,0,VALID,25.1557,VALID,98,VALID,0.249219,
2013-02-28, 01:46:05,VALID,1008.04,VALID,0,VALID,104,VALID,0,VALID,25.1362,VALID,98,VALID,0.250781,
2013-02-28, 01:47:05,VALID,1008.04,VALID,0,VALID,104,VALID,0,VALID,25.1148,VALID,98,VALID,0.220703,
2013-02-28, 01:48:05,VALID,1008.03,VALID,0,VALID,104,VALID,0,VALID,25.1167,VALID,98,VALID,0.15625,
2013-02-28, 01:49:05,VALID,1008.05,VALID,0,VALID,104,VALID,0,VALID,25.0973,VALID,98,VALID,0.235547,
2013-02-28, 01:50:05,VALID,1008.03,VALID,0,VALID,104,VALID,0,VALID,25.0973,VALID,98,VALID,0.155469,
2013-02-28, 01:51:05,VALID,1008.02,VALID,0,VALID,104,VALID,0,VALID,25.0583,VALID,98,VALID,0,
2013-02-28, 01:52:05,VALID,1007.99,VALID,0,VALID,104,VALID,0,VALID,25.0583,VALID,98,VALID,0,
2013-02-28, 01:53:05,VALID,1007.97,VALID,0,VALID,104,VALID,0,VALID,25.0583,VALID,98,VALID,0,
2013-02-28, 01:54:05,VALID,1007.95,VALID,0,VALID,104,VALID,0,VALID,25.0583,VALID,97,VALID,0,
2013-02-28, 01:55:05,VALID,1007.96,VALID,0,VALID,104,VALID,0,VALID,25.0174,VALID,98,VALID,0,
2013-02-28, 01:56:05,VALID,1007.93,VALID,0,VALID,104,VALID,0,VALID,25.0388,VALID,98,VALID,0,
2013-02-28, 01:57:05,VALID,1007.92,VALID,0,VALID,104,VALID,0,VALID,25.0388,VALID,98,VALID,0,
2013-02-28, 01:58:05,VALID,1007.92,VALID,0,VALID,104,VALID,0,VALID,25.0388,VALID,98,VALID,0,
2013-02-28, 01:59:05,VALID,1007.92,VALID,0,VALID,104,VALID,0,VALID,25.0388,VALID,98,VALID,0,
2013-02-28, 02:00:05,VALID,1007.88,VALID,0,VALID,104,VALID,0,VALID,25.0388,VALID,97,VALID,0,
2013-02-28, 02:01:05,VALID,1007.92,VALID,0,VALID,104,VALID,0,VALID,25.0388,VALID,98,VALID,0,
2013-02-28, 02:02:05,VALID,1007.86,VALID,0,VALID,104,VALID,0,VALID,25.0388,VALID,98,VALID,0,
2013-02-28, 02:03:05,VALID,1007.83,VALID,0,VALID,104,VALID,0,VALID,25.0388,VALID,98,VALID,0,
2013-02-28, 02:04:05,VALID,1007.86,VALID,0,VALID,104,VALID,0,VALID,25.0778,VALID,98,VALID,0.2125,
2013-02-28, 02:05:05,VALID,1007.8,VALID,0,VALID,104,VALID,0,VALID,25.0973,VALID,98,VALID,0.355078,
2013-02-28, 02:06:05,VALID,1007.81,VALID,0,VALID,104,VALID,0,VALID,25.1362,VALID,98,VALID,0.263281,
2013-02-28, 02:07:05,VALID,1007.79,VALID,0,VALID,104,VALID,0,VALID,25.1362,VALID,98,VALID,0.148828,
2013-02-28, 02:08:05,VALID,1007.79,VALID,0,VALID,104,VALID,0,VALID,25.1343,VALID,98,VALID,0,
2013-02-28, 02:09:05,VALID,1007.78,VALID,0,VALID,104,VALID,0,VALID,25.1947,VALID,98,VALID,0.189844,
2013-02-28, 02:10:05,VALID,1007.76,VALID,0,VALID,104,VALID,0,VALID,25.1947,VALID,98,VALID,0.225781,
2013-02-28, 02:11:05,VALID,1007.75,VALID,0,VALID,104,VALID,0,VALID,25.1947,VALID,98,VALID,0.384375,
2013-02-28, 02:12:05,VALID,1007.73,VALID,0,VALID,104,VALID,0,VALID,25.2142,VALID,98,VALID,0.272656,
2013-02-28, 02:13:05,VALID,1007.7,VALID,0,VALID,104,VALID,0,VALID,25.2142,VALID,98,VALID,0.199609,
2013-02-28, 02:14:05,VALID,1007.69,VALID,0,VALID,104,VALID,0,VALID,25.2142,VALID,97,VALID,0.247266,
2013-02-28, 02:15:05,VALID,1007.69,VALID,0,VALID,104,VALID,0,VALID,25.2142,VALID,98,VALID,0.292578,
2013-02-28, 02:16:05,VALID,1007.67,VALID,0,VALID,104,VALID,0,VALID,25.2337,VALID,97,VALID,0.214844,
2013-02-28, 02:17:05,VALID,1007.66,VALID,0,VALID,104,VALID,0,VALID,25.2337,VALID,98,VALID,0.148438,
2013-02-28, 02:18:05,VALID,1007.68,VALID,0,VALID,104,VALID,0,VALID,25.1928,VALID,98,VALID,0.105469,
2013-02-28, 02:19:05,VALID,1007.63,VALID,0,VALID,104,VALID,0,VALID,25.2318,VALID,98,VALID,0,
2013-02-28, 02:20:05,VALID,1007.59,VALID,0,VALID,104,VALID,0,VALID,25.2123,VALID,98,VALID,0.119922,
2013-02-28, 02:21:05,VALID,1007.53,VALID,0,VALID,104,VALID,0,VALID,25.2318,VALID,98,VALID,0.294531,
2013-02-28, 02:22:05,VALID,1007.52,VALID,0,VALID,104,VALID,0.112112,VALID,25.2532,VALID,98,VALID,0.245703,
2013-02-28, 02:23:05,VALID,1007.52,VALID,0,VALID,104,VALID,0,VALID,25.2337,VALID,98,VALID,0.189453,
2013-02-28, 02:24:05,VALID,1007.51,VALID,0,VALID,104,VALID,0,VALID,25.2318,VALID,98,VALID,0.00976563,
2013-02-28, 02:25:05,VALID,1007.52,VALID,0,VALID,104,VALID,0,VALID,25.2318,VALID,98,VALID,0,
2013-02-28, 02:26:05,VALID,1007.56,VALID,0,VALID,104,VALID,0,VALID,25.2532,VALID,98,VALID,0.332812,
2013-02-28, 02:27:05,VALID,1007.57,VALID,0,VALID,104,VALID,0,VALID,25.2532,VALID,98,VALID,0.347266,
2013-02-28, 02:28:05,VALID,1007.56,VALID,0,VALID,104,VALID,0,VALID,25.2727,VALID,98,VALID,0.171875,
2013-02-28, 02:29:05,VALID,1007.51,VALID,0,VALID,104,VALID,0,VALID,25.2708,VALID,98,VALID,0,
2013-02-28, 02:30:05,VALID,1007.51,VALID,0,VALID,104,VALID,0,VALID,25.2922,VALID,98,VALID,0,
2013-02-28, 02:31:05,VALID,1007.5,VALID,0,VALID,104,VALID,0,VALID,25.2708,VALID,98,VALID,0,
2013-02-28, 02:32:05,VALID,1007.51,VALID,0,VALID,104,VALID,0,VALID,25.2922,VALID,98,VALID,0,
2013-02-28, 02:33:05,VALID,1007.54,VALID,0,VALID,104,VALID,0,VALID,25.2922,VALID,98,VALID,0,
2013-02-28, 02:34:05,VALID,1007.57,VALID,0,VALID,104,VALID,0,VALID,25.2727,VALID,98,VALID,0,
2013-02-28, 02:35:05,VALID,1007.55,VALID,0,VALID,104,VALID,0,VALID,25.2708,VALID,98,VALID,0,
2013-02-28, 02:36:05,VALID,1007.56,VALID,0,VALID,104,VALID,0,VALID,25.2532,VALID,98,VALID,0,
2013-02-28, 02:37:05,VALID,1007.57,VALID,0,VALID,104,VALID,0,VALID,25.2532,VALID,98,VALID,0.134375,
2013-02-28, 02:38:05,VALID,1007.54,VALID,0,VALID,104,VALID,0,VALID,25.1928,VALID,98,VALID,0.241016,
2013-02-28, 02:39:05,VALID,1007.55,VALID,0,VALID,104,VALID,0,VALID,25.1752,VALID,98,VALID,0.225,
2013-02-28, 02:40:05,VALID,1007.54,VALID,0,VALID,104,VALID,0,VALID,25.1557,VALID,98,VALID,0.225,
2013-02-28, 02:41:05,VALID,1007.57,VALID,0,VALID,104,VALID,0,VALID,25.1362,VALID,98,VALID,0.189453,
2013-02-28, 02:42:05,VALID,1007.57,VALID,0,VALID,104,VALID,0,VALID,25.1362,VALID,98,VALID,0,
2013-02-28, 02:43:05,VALID,1007.54,VALID,0,VALID,104,VALID,0,VALID,25.0973,VALID,98,VALID,0,
2013-02-28, 02:44:05,VALID,1007.55,VALID,0,VALID,104,VALID,0,VALID,25.0973,VALID,98,VALID,0,
2013-02-28, 02:45:05,VALID,1007.54,VALID,0,VALID,104,VALID,0,VALID,25.0778,VALID,98,VALID,0,
2013-02-28, 02:46:05,VALID,1007.55,VALID,0,VALID,104,VALID,0,VALID,25.0174,VALID,98,VALID,0,
2013-02-28, 02:47:05,VALID,1007.54,VALID,0,VALID,104,VALID,0,VALID,24.9979,VALID,98,VALID,0,
2013-02-28, 02:48:05,VALID,1007.58,VALID,0,VALID,104,VALID,0,VALID,24.9589,VALID,98,VALID,0,
2013-02-28, 02:49:05,VALID,1007.58,VALID,0,VALID,104,VALID,0.112112,VALID,24.9589,VALID,98,VALID,0,
2013-02-28, 02:50:05,VALID,1007.58,VALID,0,VALID,104,VALID,0,VALID,24.9589,VALID,98,VALID,0,
2013-02-28, 02:51:05,VALID,1007.59,VALID,0,VALID,104,VALID,0,VALID,24.9394,VALID,98,VALID,0,
2013-02-28, 02:52:05,VALID,1007.58,VALID,0,VALID,104,VALID,0,VALID,24.9394,VALID,98,VALID,0,
2013-02-28, 02:53:05,VALID,1007.57,VALID,0,VALID,104,VALID,0,VALID,24.9608,VALID,98,VALID,0,
2013-02-28, 02:54:05,VALID,1007.57,VALID,0,VALID,104,VALID,0,VALID,24.9413,VALID,98,VALID,0,
2013-02-28, 02:55:05,VALID,1007.57,VALID,0,VALID,104,VALID,0,VALID,24.9608,VALID,98,VALID,0,
2013-02-28, 02:56:05,VALID,1007.57,VALID,0,VALID,104,VALID,0,VALID,24.9608,VALID,98,VALID,0,
2013-02-28, 02:57:05,VALID,1007.58,VALID,0,VALID,104,VALID,0,VALID,24.9394,VALID,98,VALID,0,
2013-02-28, 02:58:05,VALID,1007.58,VALID,0,VALID,104,VALID,0,VALID,24.9199,VALID,98,VALID,0,
2013-02-28, 02:59:05,VALID,1007.57,VALID,0,VALID,104,VALID,0,VALID,24.9413,VALID,98,VALID,0,
2013-02-28, 03:00:05,VALID,1007.55,VALID,0,VALID,104,VALID,0,VALID,24.9394,VALID,98,VALID,0,
2013-02-28, 03:01:05,VALID,1007.57,VALID,0,VALID,104,VALID,0,VALID,24.9413,VALID,98,VALID,0,
2013-02-28, 03:02:05,VALID,1007.54,VALID,0,VALID,104,VALID,0,VALID,24.9413,VALID,98,VALID,0,
2013-02-28, 03:03:05,VALID,1007.5,VALID,0,VALID,104,VALID,0,VALID,24.9803,VALID,98,VALID,0,
2013-02-28, 03:04:05,VALID,1007.5,VALID,0,VALID,104,VALID,0.112112,VALID,24.9394,VALID,98,VALID,0,
2013-02-28, 03:05:05,VALID,1007.47,VALID,0,VALID,104,VALID,0,VALID,24.9199,VALID,98,VALID,0,
2013-02-28, 03:06:05,VALID,1007.46,VALID,0,VALID,104,VALID,0,VALID,24.9413,VALID,98,VALID,0.0960938,
2013-02-28, 03:07:05,VALID,1007.42,VALID,0,VALID,104,VALID,0,VALID,24.9218,VALID,98,VALID,0.140234,
2013-02-28, 03:08:05,VALID,1007.42,VALID,0,VALID,104,VALID,0,VALID,24.9004,VALID,98,VALID,0.179688,
2013-02-28, 03:09:05,VALID,1007.44,VALID,0,VALID,104,VALID,0,VALID,24.9218,VALID,98,VALID,0.239063,
2013-02-28, 03:10:05,VALID,1007.43,VALID,0,VALID,104,VALID,0,VALID,24.9004,VALID,98,VALID,0.185937,
2013-02-28, 03:11:05,VALID,1007.38,VALID,0,VALID,104,VALID,0,VALID,24.9023,VALID,98,VALID,0.109766,
2013-02-28, 03:12:05,VALID,1007.37,VALID,0,VALID,104,VALID,0,VALID,24.8615,VALID,98,VALID,0,
2013-02-28, 03:13:05,VALID,1007.37,VALID,0,VALID,104,VALID,0,VALID,24.8828,VALID,98,VALID,0,
2013-02-28, 03:14:05,VALID,1007.34,VALID,0,VALID,104,VALID,0,VALID,24.8633,VALID,98,VALID,0,
2013-02-28, 03:15:05,VALID,1007.32,VALID,0,VALID,104,VALID,0,VALID,24.8438,VALID,98,VALID,0,
2013-02-28, 03:16:05,VALID,1007.33,VALID,0,VALID,104,VALID,0,VALID,24.8225,VALID,98,VALID,0,
2013-02-28, 03:17:05,VALID,1007.32,VALID,0,VALID,104,VALID,0,VALID,24.8438,VALID,98,VALID,0,
2013-02-28, 03:18:05,VALID,1007.37,VALID,0,VALID,104,VALID,0,VALID,24.8438,VALID,98,VALID,0,
2013-02-28, 03:19:05,VALID,1007.35,VALID,0,VALID,104,VALID,0,VALID,24.803,VALID,98,VALID,0.276563,
2013-02-28, 03:20:05,VALID,1007.37,VALID,0,VALID,104,VALID,0,VALID,24.8225,VALID,98,VALID,0.426953,
2013-02-28, 03:21:05,VALID,1007.35,VALID,0,VALID,104,VALID,0,VALID,24.803,VALID,98,VALID,0.559766,
2013-02-28, 03:22:05,VALID,1007.34,VALID,0,VALID,104,VALID,0,VALID,24.8049,VALID,62,VALID,0.685938,
2013-02-28, 03:23:05,VALID,1007.34,VALID,0,VALID,104,VALID,0,VALID,24.7659,VALID,57,VALID,0.625391,
2013-02-28, 03:24:05,VALID,1007.36,VALID,0,VALID,104,VALID,0,VALID,24.7055,VALID,23,VALID,0.885547,
2013-02-28, 03:25:05,VALID,1007.37,VALID,0,VALID,104,VALID,0,VALID,24.7055,VALID,360,VALID,1.06445,
2013-02-28, 03:26:05,VALID,1007.35,VALID,0,VALID,104,VALID,0,VALID,24.7074,VALID,360,VALID,0.455078,
2013-02-28, 03:27:05,VALID,1007.36,VALID,0,VALID,104,VALID,0,VALID,24.6879,VALID,360,VALID,0.460547,
2013-02-28, 03:28:05,VALID,1007.37,VALID,0,VALID,104,VALID,0,VALID,24.6666,VALID,359,VALID,0.592969,
2013-02-28, 03:29:05,VALID,1007.39,VALID,0,VALID,104,VALID,0,VALID,24.6666,VALID,347,VALID,0.916016,
2013-02-28, 03:30:05,VALID,1007.42,VALID,0,VALID,104,VALID,0,VALID,24.6666,VALID,340,VALID,0.576172,
2013-02-28, 03:31:05,VALID,1007.43,VALID,0,VALID,104,VALID,0.112112,VALID,24.686,VALID,340,VALID,0.58125,
2013-02-28, 03:32:05,VALID,1007.42,VALID,0,VALID,104,VALID,0,VALID,24.7269,VALID,340,VALID,0.439844,
2013-02-28, 03:33:05,VALID,1007.41,VALID,0,VALID,104,VALID,0,VALID,24.7464,VALID,340,VALID,0.259766,
2013-02-28, 03:34:05,VALID,1007.42,VALID,0,VALID,104,VALID,0,VALID,24.7269,VALID,340,VALID,0.402344,
2013-02-28, 03:35:05,VALID,1007.36,VALID,0,VALID,104,VALID,0,VALID,24.7269,VALID,340,VALID,0.296484,
2013-02-28, 03:36:05,VALID,1007.38,VALID,0,VALID,104,VALID,0,VALID,24.7055,VALID,340,VALID,0.504687,
2013-02-28, 03:37:05,VALID,1007.36,VALID,0,VALID,104,VALID,0.112112,VALID,24.7269,VALID,340,VALID,0.519141,
2013-02-28, 03:38:05,VALID,1007.38,VALID,0,VALID,104,VALID,0,VALID,24.7269,VALID,340,VALID,0.357422,
2013-02-28, 03:39:05,VALID,1007.39,VALID,0,VALID,104,VALID,0,VALID,24.686,VALID,340,VALID,0.282422,
2013-02-28, 03:40:05,VALID,1007.41,VALID,0,VALID,104,VALID,0,VALID,24.7074,VALID,340,VALID,0.267188,
2013-02-28, 03:41:05,VALID,1007.43,VALID,0,VALID,104,VALID,0,VALID,24.6879,VALID,340,VALID,0,
2013-02-28, 03:42:05,VALID,1007.39,VALID,0,VALID,104,VALID,0,VALID,24.6879,VALID,340,VALID,0.133984,
2013-02-28, 03:43:05,VALID,1007.4,VALID,0,VALID,104,VALID,0,VALID,24.6879,VALID,340,VALID,0,
2013-02-28, 03:44:05,VALID,1007.41,VALID,0,VALID,104,VALID,0.112112,VALID,24.6666,VALID,340,VALID,0,
2013-02-28, 03:45:05,VALID,1007.38,VALID,0,VALID,104,VALID,0,VALID,24.6489,VALID,340,VALID,0.265234,
2013-02-28, 03:46:04,VALID,1007.35,VALID,0,VALID,104,VALID,0,VALID,24.6489,VALID,340,VALID,0.265625,
2013-02-28, 03:47:04,VALID,1007.35,VALID,0,VALID,104,VALID,0,VALID,24.6294,VALID,340,VALID,0.296094,
2013-02-28, 03:48:04,VALID,1007.36,VALID,0,VALID,104,VALID,0,VALID,24.6489,VALID,340,VALID,0.269531,
2013-02-28, 03:49:04,VALID,1007.31,VALID,0,VALID,104,VALID,0,VALID,24.6489,VALID,340,VALID,0.326562,
2013-02-28, 03:50:04,VALID,1007.33,VALID,0,VALID,104,VALID,0,VALID,24.6276,VALID,340,VALID,0.0523437,
2013-02-28, 03:51:04,VALID,1007.34,VALID,0,VALID,104,VALID,0,VALID,24.6489,VALID,340,VALID,0.236719,
2013-02-28, 03:52:04,VALID,1007.35,VALID,0,VALID,104,VALID,0,VALID,24.6684,VALID,340,VALID,0.01875,
2013-02-28, 03:53:04,VALID,1007.38,VALID,0,VALID,104,VALID,0,VALID,24.6471,VALID,340,VALID,0.000390625,
2013-02-28, 03:54:04,VALID,1007.39,VALID,0,VALID,104,VALID,0,VALID,24.6471,VALID,340,VALID,0.221875,
2013-02-28, 03:55:04,VALID,1007.37,VALID,0,VALID,104,VALID,0,VALID,24.6471,VALID,340,VALID,0.275391,
2013-02-28, 03:56:04,VALID,1007.34,VALID,0,VALID,104,VALID,0,VALID,24.6684,VALID,340,VALID,0.564062,
2013-02-28, 03:57:04,VALID,1007.36,VALID,0,VALID,104,VALID,0,VALID,24.6879,VALID,340,VALID,0.710156,
2013-02-28, 03:58:04,VALID,1007.36,VALID,0,VALID,104,VALID,0,VALID,24.6684,VALID,340,VALID,0.625391,
2013-02-28, 03:59:04,VALID,1007.39,VALID,0,VALID,104,VALID,0,VALID,24.6666,VALID,355,VALID,0.571484,
2013-02-28, 04:00:04,VALID,1007.44,VALID,0,VALID,104,VALID,0,VALID,24.6471,VALID,355,VALID,0.697656,